Little Falls, MN

12:17 PM CDT on April 26, 2017 (GMT -0500)
Little Falls-Morrison County

Weather History for KLXL - December, 2012

Change the Weather History Date:

Sunday, December 9, 2012

  Actual Average Record
Temperature  
Mean Temperature 19 °F -  
Max Temperature 28 °F 26 °F 57 °F (1939)
Min Temperature 8 °F 8 °F -18 °F (1955)
Degree Days  
Heating Degree Days 46    
Moisture  
Dew Point 21 °F    
Average Humidity 88    
Maximum Humidity 93    
Minimum Humidity 73    
Precipitation  
Precipitation 0.24 in - - ()
Sea Level Pressure  
Sea Level Pressure 29.97 in    
Wind  
Wind Speed 8 mph (NNE)    
Max Wind Speed 13 mph    
Max Gust Speed 23 mph    
Visibility 3 miles    
Events Snow    
Averages and records for this station are not official NWS values.
T = Trace of Precipitation, MM = Missing Value Source: NWS Daily Summary

Daily Weather History Graph

Daily Weather History Graph

Search for Another Location

Airport or City:

Trip Planner

Search our weather history database for the weather conditions in past years. The results will help you decide how hot, cold, wet, or windy it might be!

Date:

Astronomy

Dec. 09, 2012 Rise Set
Actual Time 7:47 AM CST 4:32 PM CST
Civil Twilight 7:13 AM CST 5:06 PM CST
Nautical Twilight 6:35 AM CST 5:44 PM CST
Astronomical Twilight 5:59 AM CST 6:20 PM CST
Moon 3:11 AM CST (12/9) 1:48 PM CST (12/9)
Length of Visible Light 9h 53m
Length of Day
8h 44m
Waning Crescent, 18% of the Moon is Illuminated
Dec 9
Waning Crescent
Dec 13
New
Dec 19
First Quarter
Dec 28
Full
Jan 4
Last Quarter

Hourly Weather History & Observations

Time (CST) Temp. Windchill Dew Point Humidity Pressure Visibility Wind Dir Wind Speed Gust Speed Precip Events Conditions
12:13 AM 28.4 °F 20.4 °F 26.6 °F 93% 30.00 in 2.0 mi East 8.1 mph - N/A Snow Light Snow
12:32 AM 28.4 °F 21.2 °F 26.6 °F 93% 30.00 in 1.5 mi East 6.9 mph - N/A Snow Light Snow
12:53 AM 28.4 °F 20.4 °F 26.6 °F 93% 29.99 in 1.2 mi East 8.1 mph - N/A Snow Snow
1:13 AM 28.4 °F 20.4 °F 26.6 °F 93% 29.99 in 1.2 mi East 8.1 mph - 0.01 in Snow Light Snow
1:32 AM 28.4 °F 20.4 °F 26.6 °F 93% 29.98 in 1.0 mi East 8.1 mph - 0.01 in Snow Snow
1:53 AM 28.4 °F 19.7 °F 26.6 °F 93% 29.98 in 1.5 mi East 9.2 mph - 0.01 in Snow Light Snow
2:13 AM 28.4 °F 20.4 °F 26.6 °F 93% 29.97 in 1.8 mi East 8.1 mph - N/A Snow Light Snow
2:32 AM 28.4 °F 20.4 °F 26.6 °F 93% 29.97 in 1.2 mi East 8.1 mph - N/A Snow Snow
2:53 AM 28.4 °F 19.7 °F 26.6 °F 93% 29.97 in 1.5 mi East 9.2 mph - 0.01 in Snow Light Snow
3:12 AM 28.4 °F 18.5 °F 26.6 °F 93% 29.96 in 1.5 mi East 11.5 mph 16.1 mph N/A Snow Light Snow
3:33 AM 28.4 °F 19.1 °F 26.6 °F 93% 29.96 in 1.2 mi East 10.4 mph - N/A Snow Light Snow
3:53 AM 28.4 °F 20.4 °F 26.6 °F 93% 29.95 in 1.0 mi East 8.1 mph - N/A Snow Snow
4:12 AM 28.4 °F 21.2 °F 26.6 °F 93% 29.94 in 0.8 mi East 6.9 mph - 0.01 in Snow Snow
4:33 AM 28.4 °F 19.7 °F 26.6 °F 93% 29.94 in 1.0 mi East 9.2 mph - 0.01 in Snow Snow
4:53 AM 28.4 °F 20.4 °F 26.6 °F 93% 29.95 in 0.8 mi East 8.1 mph - 0.02 in Snow Snow
5:12 AM 28.4 °F 20.4 °F 26.6 °F 93% 29.95 in 0.8 mi East 8.1 mph - N/A Snow Snow
5:33 AM 28.4 °F 20.4 °F 26.6 °F 93% 29.95 in 0.8 mi ENE 8.1 mph - 0.01 in Snow Snow
5:52 AM 28.4 °F 19.1 °F 26.6 °F 93% 29.94 in 0.8 mi ENE 10.4 mph - 0.02 in Snow Snow
6:12 AM 28.4 °F 21.2 °F 26.6 °F 93% 29.94 in 0.8 mi ENE 6.9 mph - 0.01 in Snow Snow
6:33 AM 28.4 °F 21.2 °F 26.6 °F 93% 29.94 in 1.0 mi ENE 6.9 mph - 0.02 in Snow Snow
6:52 AM 28.4 °F 22.2 °F 26.6 °F 93% 29.95 in 0.8 mi ENE 5.8 mph - 0.03 in Snow Snow
7:13 AM 28.4 °F 22.2 °F 26.6 °F 93% 29.95 in 0.8 mi ENE 5.8 mph - 0.01 in Snow Snow
7:33 AM 28.4 °F 24.6 °F 26.6 °F 93% 29.96 in 1.0 mi NE 3.5 mph - 0.03 in Snow Snow
7:52 AM 28.4 °F 23.3 °F 26.6 °F 93% 29.96 in 1.0 mi NE 4.6 mph - 0.04 in Snow Snow
8:12 AM 28.4 °F 23.3 °F 26.6 °F 93% 29.96 in 1.0 mi NE 4.6 mph - 0.01 in Snow Snow
8:32 AM 28.4 °F 23.3 °F 26.6 °F 93% 29.96 in 1.0 mi NNE 4.6 mph - 0.03 in Snow Snow
8:53 AM 28.4 °F 23.3 °F 26.6 °F 93% 29.97 in 0.5 mi NNE 4.6 mph - 0.04 in Snow Snow
9:32 AM 28.4 °F 23.3 °F 26.6 °F 93% 29.96 in 0.8 mi NNE 4.6 mph - 0.01 in Snow Light Snow
9:53 AM 28.4 °F 22.2 °F 26.6 °F 93% 29.97 in 0.5 mi NE 5.8 mph - 0.02 in Snow Light Snow
10:12 AM 28.4 °F 22.2 °F 26.6 °F 93% 29.97 in 0.5 mi NNE 5.8 mph - 0.01 in Snow Snow
10:32 AM 28.4 °F 23.3 °F 26.6 °F 93% 29.97 in 0.5 mi NNE 4.6 mph - 0.02 in Snow Light Snow
10:53 AM 28.4 °F 22.2 °F 26.6 °F 93% 29.97 in 0.8 mi NNE 5.8 mph - 0.02 in Snow Light Snow
11:12 AM 28.4 °F 22.2 °F 26.6 °F 93% 29.96 in 0.8 mi NNE 5.8 mph - 0.01 in Snow Light Snow
11:32 AM 28.4 °F 23.3 °F 26.6 °F 93% 29.95 in 0.8 mi North 4.6 mph - 0.01 in Snow Light Snow
11:53 AM 28.4 °F 24.6 °F 26.6 °F 93% 29.94 in 0.8 mi NNE 3.5 mph - 0.02 in Snow Light Snow
12:12 PM 28.4 °F 22.2 °F 26.6 °F 93% 29.93 in 0.8 mi North 5.8 mph - N/A Snow Light Snow
12:33 PM 28.4 °F 23.3 °F 26.6 °F 93% 29.93 in 1.0 mi North 4.6 mph - 0.01 in Snow Light Snow
12:53 PM 28.4 °F 21.2 °F 26.6 °F 93% 29.92 in 1.0 mi North 6.9 mph - 0.01 in Snow Light Snow
1:13 PM 26.6 °F 18.2 °F 23.0 °F 86% 29.92 in 0.8 mi North 8.1 mph 17.3 mph N/A Snow Light Snow
1:33 PM 26.6 °F 20.0 °F 23.0 °F 86% 29.92 in 0.8 mi North 5.8 mph 19.6 mph N/A Snow Light Snow
1:52 PM 24.8 °F 14.6 °F 21.2 °F 86% 29.92 in 1.0 mi North 10.4 mph 18.4 mph N/A Snow Light Snow
2:13 PM 24.8 °F 16.9 °F 21.2 °F 86% 29.92 in 1.0 mi North 6.9 mph - N/A Snow Light Snow
2:32 PM 23.0 °F 13.9 °F 19.4 °F 86% 29.92 in 0.8 mi North 8.1 mph - N/A Snow Light Snow
2:52 PM 23.0 °F 13.1 °F 19.4 °F 86% 29.92 in 0.8 mi NNW 9.2 mph - N/A Snow Light Snow
3:13 PM 23.0 °F 13.9 °F 19.4 °F 86% 29.93 in 1.0 mi North 8.1 mph 17.3 mph N/A Snow Light Snow
3:32 PM 21.2 °F 9.5 °F 19.4 °F 93% 29.94 in 1.2 mi North 11.5 mph 19.6 mph N/A Snow Light Snow
3:52 PM 21.2 °F 9.5 °F 17.6 °F 86% 29.95 in 1.5 mi NNW 11.5 mph 21.9 mph N/A Snow Light Snow
4:13 PM 21.2 °F 12.6 °F 17.6 °F 86% 29.96 in 2.5 mi North 6.9 mph 16.1 mph N/A Snow Light Snow
4:32 PM 21.2 °F 10.9 °F 17.6 °F 86% 29.97 in 3.0 mi NNW 9.2 mph 20.7 mph N/A Snow Light Snow
4:52 PM 19.4 °F 10.4 °F 17.6 °F 93% 29.98 in 3.0 mi NNW 6.9 mph 17.3 mph N/A Snow Light Snow
5:13 PM 19.4 °F 6.6 °F 15.8 °F 86% 29.99 in 2.5 mi NNW 12.7 mph 19.6 mph N/A Snow Light Snow
5:32 PM 19.4 °F 6.6 °F 15.8 °F 86% 29.99 in 2.5 mi NNW 12.7 mph 21.9 mph N/A   Overcast
5:52 PM 19.4 °F 7.9 °F 14.0 °F 80% 30.00 in 2.5 mi NNW 10.4 mph 18.4 mph N/A   Overcast
6:13 PM 19.4 °F 7.2 °F 14.0 °F 80% 30.00 in 2.0 mi NNW 11.5 mph 20.7 mph N/A Snow Light Snow
6:32 PM 19.4 °F 9.5 °F 14.0 °F 80% 30.01 in 2.5 mi NNW 8.1 mph 16.1 mph N/A   Overcast
6:53 PM 17.6 °F 6.4 °F 14.0 °F 86% 30.00 in 2.5 mi NNW 9.2 mph 21.9 mph N/A Snow Light Snow
7:13 PM 17.6 °F 5.7 °F 14.0 °F 86% 30.01 in 3.0 mi NNW 10.4 mph 18.4 mph N/A Snow Light Snow
7:32 PM 17.6 °F 5.7 °F 12.2 °F 79% 30.01 in 4.0 mi NNW 10.4 mph 23.0 mph N/A Snow Light Snow
7:53 PM 17.6 °F 5.7 °F 12.2 °F 79% 30.01 in 4.0 mi NNW 10.4 mph 21.9 mph N/A Snow Light Snow
8:12 PM 17.6 °F 6.4 °F 12.2 °F 79% 30.01 in 7.0 mi North 9.2 mph 21.9 mph N/A   Overcast
8:33 PM 17.6 °F 6.4 °F 12.2 °F 79% 30.01 in 7.0 mi NNW 9.2 mph 17.3 mph N/A   Overcast
8:52 PM 15.8 °F 2.7 °F 10.4 °F 79% 30.01 in 7.0 mi NNW 11.5 mph 18.4 mph N/A   Overcast
9:12 PM 14.0 °F -0.2 °F 8.6 °F 79% 30.01 in 7.0 mi NNW 12.7 mph 21.9 mph N/A   Overcast
9:33 PM 14.0 °F 2.0 °F 8.6 °F 79% 30.01 in 10.0 mi NNW 9.2 mph 19.6 mph N/A   Overcast
9:52 PM 12.2 °F -1.0 °F 6.8 °F 79% 30.01 in 10.0 mi NNW 10.4 mph 16.1 mph N/A   Scattered Clouds
10:12 PM 12.2 °F 2.9 °F 6.8 °F 79% 30.00 in 10.0 mi NNW 5.8 mph 16.1 mph N/A   Mostly Cloudy
10:33 PM 10.4 °F -3.3 °F 5.0 °F 79% 30.00 in 10.0 mi NNW 10.4 mph - N/A Snow Light Snow
10:52 PM 10.4 °F -2.4 °F 5.0 °F 79% 30.01 in 10.0 mi NNW 9.2 mph - N/A   Scattered Clouds
11:12 PM 10.4 °F -2.4 °F 5.0 °F 79% 30.01 in 10.0 mi NNW 9.2 mph - N/A   Scattered Clouds
11:33 PM 10.4 °F -2.4 °F 3.2 °F 73% 30.00 in 10.0 mi NNW 9.2 mph - N/A   Clear
11:52 PM 8.6 °F 0.1 °F 3.2 °F 79% 29.99 in 10.0 mi NW 4.6 mph - N/A   Clear